[[{"header":{"parameterUnit":"m.s-1","parameterCategory":1,"la1":30.2991,"la2":30.254,"lo1":-89.0895,"lo2":-89.0444,"dy":0.0017,"dx":0.0017,"nx":28,"ny":28,"refTime":"2026-01-04T09:00:00:Z","depth":0,"parameterNumber":2,"parameterNumberName":"U-component_of_WINDS"},"data":[0,0,0,0,0,0,0,0,0,0,0,0,0,0,0,0,0,0,0,0,0,0,0,0,0,0,0,0,0,0,0,0,0,0,0,0,0,0,0,0,0,0,0,0,0,0,0,0,0,0,0,0,0,0,0,0,0,0,-0.521,-0.5209,0,-0.5124,-0.5123,-0.5122,-0.5005,-0.5003,-0.5001,-0.5,-0.4916,-0.4915,-0.4915,0,0,0,0,0,0,0,0,0,0,0,0,0,-0.5278,-0.5277,-0.521,-0.5209,-0.5208,-0.5124,-0.5123,-0.5122,-0.5006,-0.5003,-0.5001,-0.4999,-0.4916,-0.4915,-0.4915,0,0,0,0,0,0,0,0,0,0,0,0,0,-0.5226,-0.5277,-0.5211,-0.514,-0.5133,-0.5125,-0.5123,-0.5122,-0.5006,-0.5003,-0.5,-0.4998,-0.4916,-0.4915,-0.4915,-0.497,0,0,-0.4913,-0.4913,0,0,0,0,0,0,0,0,-0.5229,-0.5224,-0.5151,-0.5145,-0.5137,-0.5072,-0.5116,-0.5071,-0.5007,-0.5055,-0.5,-0.4996,-0.4971,-0.4965,-0.4956,-0.4966,-0.4963,-0.4913,-0.4913,-0.4912,-0.4912,0,0,0,0,0,0,0,-0.5233,-0.5227,-0.5176,-0.5151,-0.5142,-0.5114,-0.5103,-0.5107,-0.503,-0.505,-0.5041,-0.5033,-0.4966,-0.4957,-0.4953,-0.4961,-0.4913,-0.4912,-0.4912,-0.4912,-0.5012,-0.5015,0,0,0,0,0,0,-0.5246,-0.5231,-0.5179,-0.5174,-0.5176,-0.5115,-0.5103,-0.5096,-0.503,-0.5017,-0.5035,-0.5027,-0.4959,-0.4954,-0.495,-0.5009,-0.4912,-0.4912,-0.4911,-0.5009,-0.5013,-0.5016,0,0,0,0,0,0,-0.5248,-0.5243,-0.5183,-0.52,-0.519,-0.5117,-0.511,-0.5096,-0.5086,-0.5018,-0.5005,-0.5039,-0.4957,-0.495,-0.4965,-0.5004,-0.4911,-0.4911,-0.5005,-0.501,-0.5014,-0.5129,0,0,0,0,0,0,-0.5251,-0.5244,-0.5264,-0.5201,-0.5189,-0.5199,-0.5112,-0.5096,-0.5085,-0.5074,-0.5019,-0.5007,-0.4954,-0.4967,-0.4965,-0.5002,-0.491,-0.5002,-0.5008,-0.5013,-0.5122,-0.5137,-0.5151,0,0,0,0,0,-0.5254,-0.5301,-0.5265,-0.526,-0.5212,-0.5202,-0.5195,-0.5132,-0.5089,-0.5108,-0.5064,-0.5009,-0.5001,-0.4969,-0.4966,-0.5004,-0.4999,-0.5006,-0.5012,-0.5115,-0.5134,-0.515,0,0,0,0,0,0,-0.5372,-0.5291,-0.5251,-0.5279,-0.5248,-0.5182,-0.5204,-0.5154,-0.5136,-0.5126,-0.505,-0.5038,-0.5063,-0.5035,-0.5001,-0.5053,-0.4991,-0.4998,-0.5071,-0.5088,-0.5102,-0.5108,-0.491,0,0,0,0,0,-0.5401,-0.5398,-0.5328,-0.536,-0.5346,-0.5278,-0.5272,-0.5225,-0.519,-0.5177,-0.5134,-0.5104,-0.5094,-0.509,-0.5077,-0.5117,-0.5103,-0.5141,-0.5156,-0.5168,-0.5174,-0.5193,-0.5209,-0.5038,-0.5038,-0.5038,0,0,-0.5461,-0.5417,-0.542,-0.5382,-0.5353,-0.5352,-0.5268,-0.5271,-0.527,-0.5178,-0.5189,-0.5157,-0.5118,-0.5145,-0.5155,-0.5122,-0.5218,-0.5177,-0.5187,-0.5187,-0.5201,-0.5218,-0.5232,-0.5043,-0.5042,-0.5041,0,0,-0.5571,-0.5537,-0.5559,-0.5531,-0.5487,-0.5441,-0.5447,-0.5388,-0.5363,-0.5372,-0.5302,-0.5301,-0.5286,-0.5261,-0.5246,-0.5346,-0.5294,-0.5344,-0.5419,-0.5438,-0.5452,-0.5463,-0.5498,-0.5512,-0.5351,-0.5351,-0.5351,0,-0.5652,-0.5647,-0.5578,-0.5585,-0.557,-0.5485,-0.5507,-0.5483,-0.5438,-0.5431,-0.5394,-0.5373,-0.5341,-0.5361,-0.5385,-0.5376,-0.538,-0.535,-0.5455,-0.5466,-0.5476,-0.5508,-0.5522,-0.5357,-0.5357,-0.5356,-0.5355,0,-0.5749,-0.5747,-0.5771,-0.5727,-0.5715,-0.573,-0.5663,-0.566,-0.5615,-0.5574,-0.5585,-0.5543,-0.552,-0.5521,-0.5478,-0.5535,-0.5516,-0.5469,-0.5405,-0.5499,-0.5529,-0.5541,-0.5367,-0.5364,-0.5362,-0.5361,0,0,-0.5931,-0.5848,-0.5858,-0.5836,-0.5781,-0.5779,-0.579,-0.5766,-0.5765,-0.5736,-0.5744,-0.5733,-0.5688,-0.5672,-0.5625,-0.5642,-0.5723,-0.5592,-0.559,-0.5617,-0.5783,-0.5818,-0.5834,-0.5688,-0.569,-0.5691,-0.5786,0,-0.603,-0.6043,-0.598,-0.601,-0.6007,-0.5926,-0.5936,-0.5903,-0.5865,-0.5858,-0.5816,-0.5809,-0.5751,-0.5741,-0.5753,-0.571,-0.5755,-0.5703,-0.5695,-0.5695,-0.5707,-0.5849,-0.5887,-0.5978,-0.5797,-0.5799,-0.58,0,-0.6147,-0.6123,-0.6152,-0.6094,-0.6091,-0.6101,-0.6073,-0.6068,-0.6029,-0.6,-0.5982,-0.5927,-0.5935,-0.5874,-0.5884,-0.585,-0.5843,-0.5821,-0.5823,-0.582,-0.5753,-0.585,-0.6006,-0.6019,-0.5818,-0.5816,-0.5815,0,-0.6276,-0.6251,-0.6265,-0.625,-0.6183,-0.6192,-0.6165,-0.6123,-0.6113,-0.609,-0.6082,-0.6061,-0.6049,-0.6034,-0.5976,-0.5937,-0.5992,-0.5927,-0.5969,-0.597,-0.5984,-0.5984,-0.6141,-0.5981,-0.598,-0.598,-0.598,0,-0.6392,-0.6413,-0.6322,-0.6331,-0.6352,-0.628,-0.6304,-0.6269,-0.6233,-0.6234,-0.6163,-0.6166,-0.6088,-0.6083,-0.6037,-0.6052,-0.6047,-0.6025,-0.6012,-0.6031,-0.6034,-0.6025,-0.6017,-0.5984,-0.5983,-0.5982,-0.5982,0,-0.654,-0.648,-0.6489,-0.6425,-0.6409,-0.6428,-0.6373,-0.6379,-0.6336,-0.6338,-0.6335,-0.6268,-0.6258,-0.6198,-0.6174,-0.6143,-0.6174,-0.615,-0.6187,-0.6179,-0.6224,-0.6221,-0.6381,-0.6398,-0.6228,-0.6229,-0.6231,0,-0.6618,-0.6632,-0.6569,-0.6564,-0.6539,-0.6532,-0.6521,-0.6451,-0.6442,-0.6399,-0.6411,-0.6394,-0.6377,-0.6365,-0.6315,-0.6296,-0.627,-0.6327,-0.6267,-0.6285,-0.627,-0.627,-0.6271,-0.6341,-0.6343,-0.6345,-0.6346,0,-0.6763,-0.6732,-0.6718,-0.6693,-0.6681,-0.6658,-0.6631,-0.6632,-0.6554,-0.6548,-0.6535,-0.6522,-0.6497,-0.6482,-0.6455,-0.6427,-0.6374,-0.6365,-0.6374,-0.6393,-0.6414,-0.6403,-0.6222,-0.6362,-0.636,-0.6359,-0.6358,-0.6358,-0.6878,-0.6886,-0.6843,-0.6829,-0.6801,-0.6777,-0.6779,-0.6736,-0.6724,-0.6698,-0.6657,-0.6651,-0.6612,-0.6569,-0.6546,-0.6541,-0.651,-0.6523,-0.6526,-0.653,-0.654,-0.6415,-0.6536,-0.6535,-0.6535,-0.6534,-0.6534,0,-0.7019,-0.6987,-0.6974,-0.6938,-0.6928,-0.6877,-0.6845,-0.6839,-0.6834,-0.6802,-0.6786,-0.6772,-0.6757,-0.6705,-0.6684,-0.669,-0.6665,-0.6687,-0.6686,-0.668,-0.6568,-0.6563,-0.6707,-0.6707,-0.6707,-0.6707,-0.6707,-0.6707,-0.7091,-0.7102,-0.7067,-0.7064,-0.7031,-0.7023,-0.7009,-0.6987,-0.6961,-0.6948,-0.6934,-0.69,-0.686,-0.6836,-0.682,-0.6805,-0.6801,-0.6831,-0.6808,-0.6705,-0.6688,-0.6672,-0.6666,-0.6831,-0.6831,-0.692,-0.6921,-0.6922]},{"header":{"parameterUnit":"m.s-1","parameterCategory":1,"la1":30.2991,"la2":30.254,"lo1":-89.0895,"lo2":-89.0444,"dy":0.0017,"dx":0.0017,"nx":28,"ny":28,"refTime":"2026-01-04T09:00:00:Z","depth":0,"parameterNumber":3,"parameterNumberName":"V-component_of_WINDS"},"data":[0,0,0,0,0,0,0,0,0,0,0,0,0,0,0,0,0,0,0,0,0,0,0,0,0,0,0,0,0,0,0,0,0,0,0,0,0,0,0,0,0,0,0,0,0,0,0,0,0,0,0,0,0,0,0,0,0,0,-0.5452,-0.5453,0,-0.5555,-0.5556,-0.5558,-0.5516,-0.5514,-0.5511,-0.5509,-0.5622,-0.5627,-0.5632,0,0,0,0,0,0,0,0,0,0,0,0,0,-0.5225,-0.5229,-0.5452,-0.5453,-0.5454,-0.5555,-0.5556,-0.5558,-0.5517,-0.5514,-0.5511,-0.5508,-0.562,-0.5626,-0.5633,0,0,0,0,0,0,0,0,0,0,0,0,0,-0.5325,-0.523,-0.5452,-0.5446,-0.5446,-0.5555,-0.5557,-0.5558,-0.5517,-0.5514,-0.551,-0.5507,-0.5618,-0.5626,-0.5633,-0.5756,0,0,-0.5658,-0.5661,0,0,0,0,0,0,0,0,-0.532,-0.5334,-0.5445,-0.5446,-0.5447,-0.5519,-0.5518,-0.5625,-0.5518,-0.5491,-0.5509,-0.5505,-0.5591,-0.5601,-0.5629,-0.5761,-0.5766,-0.5658,-0.5663,-0.5667,-0.5669,0,0,0,0,0,0,0,-0.5313,-0.5329,-0.5493,-0.5447,-0.5448,-0.544,-0.545,-0.5538,-0.556,-0.5493,-0.549,-0.5502,-0.5591,-0.5621,-0.5631,-0.5768,-0.5658,-0.5665,-0.567,-0.5673,-0.6006,-0.601,0,0,0,0,0,0,-0.5305,-0.5324,-0.549,-0.5496,-0.5373,-0.5447,-0.5458,-0.55,-0.5559,-0.5565,-0.5505,-0.55,-0.5609,-0.5622,-0.5635,-0.5781,-0.5667,-0.5674,-0.5679,-0.6002,-0.6007,-0.6011,0,0,0,0,0,0,-0.53,-0.532,-0.5485,-0.5409,-0.5429,-0.5455,-0.5502,-0.5504,-0.5534,-0.5569,-0.5573,-0.5532,-0.5607,-0.5624,-0.5725,-0.5785,-0.5678,-0.5685,-0.5997,-0.6003,-0.6009,-0.6076,0,0,0,0,0,0,-0.5294,-0.5318,-0.5364,-0.541,-0.5434,-0.5573,-0.5505,-0.5508,-0.5547,-0.5541,-0.5595,-0.56,-0.5605,-0.5714,-0.5733,-0.5794,-0.5691,-0.5992,-0.6,-0.6007,-0.6069,-0.6084,-0.6097,0,0,0,0,0,-0.5286,-0.538,-0.5366,-0.5387,-0.5491,-0.5576,-0.559,-0.5592,-0.5552,-0.5598,-0.5621,-0.5598,-0.5775,-0.5725,-0.5746,-0.581,-0.5988,-0.5997,-0.6006,-0.6063,-0.6081,-0.6097,0,0,0,0,0,0,-0.5343,-0.5386,-0.5371,-0.5483,-0.5526,-0.5569,-0.5628,-0.5612,-0.5669,-0.5661,-0.5663,-0.5676,-0.5781,-0.5806,-0.5749,-0.5931,-0.5876,-0.589,-0.5911,-0.5929,-0.5943,-0.5935,-0.5697,0,0,0,0,0,-0.5368,-0.5432,-0.5467,-0.5563,-0.5585,-0.5603,-0.564,-0.5638,-0.5683,-0.5702,-0.5732,-0.5779,-0.5844,-0.5888,-0.5951,-0.6072,-0.6084,-0.6127,-0.6141,-0.6152,-0.6164,-0.623,-0.625,-0.6041,-0.6041,-0.6041,0,0,-0.5421,-0.5453,-0.5494,-0.5575,-0.5608,-0.5676,-0.5619,-0.5693,-0.5744,-0.5714,-0.5811,-0.5835,-0.5887,-0.5999,-0.605,-0.6023,-0.6224,-0.6164,-0.6173,-0.6179,-0.6242,-0.6262,-0.6279,-0.6047,-0.6046,-0.6045,0,0,-0.5553,-0.5584,-0.5666,-0.57,-0.5749,-0.576,-0.578,-0.5826,-0.584,-0.5937,-0.5916,-0.5977,-0.6091,-0.6129,-0.6163,-0.6309,-0.6291,-0.6329,-0.6403,-0.6467,-0.6484,-0.6498,-0.655,-0.6569,-0.6341,-0.6342,-0.6342,0,-0.5614,-0.5713,-0.5711,-0.5787,-0.5824,-0.5797,-0.5882,-0.5916,-0.5984,-0.6011,-0.5979,-0.6121,-0.6154,-0.6275,-0.631,-0.6338,-0.6362,-0.6323,-0.6481,-0.6496,-0.6509,-0.6559,-0.6579,-0.6346,-0.6345,-0.6345,-0.6345,0,-0.5786,-0.5855,-0.5917,-0.598,-0.6024,-0.6104,-0.6116,-0.6161,-0.6155,-0.617,-0.627,-0.6308,-0.6378,-0.6407,-0.6403,-0.6527,-0.6509,-0.6479,-0.6423,-0.6534,-0.658,-0.6599,-0.6352,-0.6351,-0.6349,-0.6348,0,0,-0.5957,-0.6018,-0.6041,-0.6069,-0.6122,-0.6176,-0.6256,-0.6322,-0.636,-0.6409,-0.6476,-0.6572,-0.6545,-0.6584,-0.6584,-0.664,-0.6753,-0.6604,-0.6605,-0.663,-0.6893,-0.6914,-0.6936,-0.6741,-0.6744,-0.6747,-0.6888,0,-0.6093,-0.6229,-0.6229,-0.6356,-0.6421,-0.6396,-0.6466,-0.6506,-0.6523,-0.6581,-0.66,-0.6668,-0.6627,-0.665,-0.6705,-0.6727,-0.6806,-0.6717,-0.6805,-0.6808,-0.6792,-0.6961,-0.6985,-0.7116,-0.6906,-0.691,-0.6912,0,-0.627,-0.6321,-0.6454,-0.6496,-0.6523,-0.6585,-0.6645,-0.6701,-0.6747,-0.6755,-0.6798,-0.6789,-0.6872,-0.6813,-0.6927,-0.6867,-0.6903,-0.6919,-0.6925,-0.6933,-0.6867,-0.6975,-0.7157,-0.7177,-0.6941,-0.6938,-0.6936,0,-0.6381,-0.6484,-0.6576,-0.6602,-0.6654,-0.6698,-0.6722,-0.6764,-0.6804,-0.6857,-0.6883,-0.6947,-0.6982,-0.7032,-0.7041,-0.6997,-0.7155,-0.7097,-0.7166,-0.7165,-0.7201,-0.7198,-0.7392,-0.7223,-0.7223,-0.7223,-0.7222,0,-0.6533,-0.6615,-0.6627,-0.6684,-0.6775,-0.6775,-0.6867,-0.6888,-0.6925,-0.6987,-0.6971,-0.703,-0.7038,-0.7099,-0.7107,-0.7201,-0.7217,-0.7227,-0.7228,-0.7228,-0.7227,-0.7252,-0.7244,-0.7228,-0.7227,-0.7226,-0.7225,0,-0.6673,-0.6684,-0.6783,-0.6824,-0.6836,-0.6902,-0.6937,-0.6993,-0.7006,-0.7085,-0.7103,-0.7127,-0.7198,-0.7211,-0.7296,-0.7302,-0.7413,-0.7405,-0.7397,-0.7396,-0.7464,-0.7458,-0.7681,-0.7711,-0.7522,-0.7524,-0.7525,0,-0.6769,-0.6831,-0.6878,-0.6917,-0.6943,-0.7006,-0.7046,-0.7049,-0.7091,-0.7148,-0.7197,-0.7266,-0.7321,-0.7437,-0.7462,-0.7527,-0.7521,-0.7595,-0.7531,-0.7529,-0.7522,-0.7519,-0.7525,-0.7607,-0.7609,-0.7611,-0.7612,0,-0.6939,-0.6941,-0.6997,-0.7056,-0.7103,-0.7151,-0.7195,-0.7229,-0.7238,-0.7287,-0.7358,-0.7401,-0.7486,-0.7555,-0.762,-0.7647,-0.7632,-0.7632,-0.7651,-0.7653,-0.7645,-0.765,-0.7431,-0.7627,-0.7626,-0.7625,-0.7624,-0.7623,-0.706,-0.7114,-0.7155,-0.7219,-0.7252,-0.7294,-0.7348,-0.7367,-0.7426,-0.7495,-0.7493,-0.7572,-0.7617,-0.7702,-0.7733,-0.7795,-0.7772,-0.78,-0.7807,-0.7814,-0.7821,-0.7635,-0.7807,-0.7807,-0.7806,-0.7806,-0.7806,0,-0.7229,-0.7254,-0.7312,-0.7374,-0.7424,-0.7403,-0.7452,-0.7496,-0.7564,-0.7607,-0.7661,-0.7743,-0.781,-0.784,-0.7906,-0.7951,-0.7946,-0.7968,-0.7966,-0.7972,-0.7838,-0.7814,-0.7971,-0.7971,-0.7971,-0.7971,-0.7971,-0.7971,-0.7322,-0.7413,-0.742,-0.7527,-0.7552,-0.7627,-0.7656,-0.7695,-0.7729,-0.782,-0.7875,-0.7893,-0.7932,-0.8,-0.8061,-0.8068,-0.8094,-0.812,-0.8124,-0.7998,-0.7982,-0.7966,-0.7944,-0.8125,-0.8126,-0.8254,-0.8255,-0.8256]}]]